Regional Weather Roundup
Issued by NWS

Home | Current Version | Previous Version | Text Only | Print | Product List | Glossary Off
Versions: 1 2 3 4 5 6 7 8 9 10 11 12 13 14 15 16 17 18 19 20 21 22 23 24 25 26 27 28 29 30 31 32 33 34 35 36 37 38 39 40 41 42 43 44 45 46 47 48 49 50

111
ASUS43 KMPX 111401
RWRMN
WEATHER ROUNDUP FOR MINNESOTA
NATIONAL WEATHER SERVICE TWIN CITIES/CHANHASSEN MN
800 AM CST THU FEB 11 2016


NOTE: "FAIR" INDICATES FEW OR NO CLOUDS BELOW 12,000 FEET WITH NO
SIGNIFICANT WEATHER AND/OR OBSTRUCTIONS TO VISIBILITY. N/A MEANS
CURRENT SKY AND/OR WEATHER CONDITIONS ARE NOT AVAILABLE.

MNZ060>063-068>070-111500-
   Twin Cities Metro

CITY           SKY/WX    TMP DP  RH WIND       PRES   REMARKS
TWIN CITIES    CLOUDY     5  -5  63 CALM      30.33S
ST PAUL        CLOUDY     2  -3  80 CALM      30.36R
CRYSTAL        CLOUDY     0  -5  79 CALM      30.32S
LAKEVILLE      CLOUDY    -6  -9  84 CALM      30.32S
EDEN PRAIRIE   CLOUDY     2  -5  72 CALM      30.32R
SOUTH ST PAUL  CLOUDY     0  -6  76 CALM      30.34S
LAKE ELMO      FAIR      -6  -9  84 CALM      30.34S
$$
MNZ001>005-007-008-013>017-022>024-027-028-111500-
   Northwest Minnesota

CITY           SKY/WX    TMP DP  RH WIND       PRES   REMARKS
BEMIDJI        CLOUDY   -17 -22  78 CALM      30.22S
HALLOCK        CLOUDY     3   0  85 S7        30.25F WCI  -9
ROSEAU         CLOUDY    -8 -13  77 CALM      30.23F
WARROAD        CLOUDY    -8 -11  84 CALM      30.23F
THIEF RVR FALL CLOUDY    -2  -2 100 S3        30.25F
CROOKSTON      CLOUDY     1  -2  85 S3        30.27F
FOSSTON        CLOUDY   -11 -17  77 CALM      30.23F
DETROIT LAKES  CLOUDY     0  -6  78 CALM      30.23F
MOORHEAD       CLOUDY     5  -2  72 CALM      30.27F
PARK RAPIDS    CLOUDY   -13 -18  78 CALM      30.22F
MAHNOMEN       CLOUDY    -8 -13  78 SE6       30.23F WCI -21
$$
MNZ006-009>011-018-025>026-111500-
   North Central Minnesota

CITY           SKY/WX    TMP DP  RH WIND       PRES   REMARKS
BAUDETTE       CLOUDY    -8 -14  74 CALM      30.21S
FLAG ISLAND    CLOUDY    -4 -11  71 SW5       30.21S WCI -15
INTL FALLS     CLOUDY    -8 -13  78 SW5       30.21F WCI -19
WASKISH        CLOUDY   -11 -15  84 CALM      30.23F
LONGVILLE      CLOUDY   -18 -24  76 CALM      30.24F
GRAND RAPIDS   CLOUDY   -17 -20  83 CALM      30.23R
CRANE LAKE     CLOUDY   -11 -17  77 CALM      30.25S
ORR            CLOUDY   -11 -18  70 CALM      30.18F
COOK           CLOUDY   -13 -17  84 CALM      30.21F
WALKER         FAIR     -19 -24  76 CALM      30.24S
$$
MNZ012-019>021-037-111500-
   Northeast Minnesota

CITY           SKY/WX    TMP DP  RH WIND       PRES   REMARKS
DULUTH         CLOUDY    -9 -15  75 W6        30.20F WCI -22
ELY            CLOUDY   -15 -18  84 CALM      30.19F
HIBBING        CLOUDY   -18 -22  82 CALM      30.22F
EVELETH        CLOUDY   -17 -24  70 CALM      30.22F
DULUTH HARBOR  CLOUDY    -6 -11  77 SW6       30.32S WCI -18
TWO HARBORS    CLOUDY    -6 -11  77 CALM      30.21F
SILVER BAY     CLOUDY    -6 -11  77 CALM      30.20S
GRAND MARAIS     N/A      1  -5  75 VRB6      30.24S WCI -10
G MARAIS ARPRT CLOUDY    -8 -15  71 NW3       30.10S
$$
MNZ029>031-032-039>041-046>048-054>057-064-111500-
   West Central Minnesota

CITY           SKY/WX    TMP DP  RH WIND       PRES   REMARKS
FERGUS FALLS   CLOUDY     7   1  78 SE3       30.29S
WHEATON        CLOUDY     9   3  78 CALM      30.27F
MORRIS         CLOUDY     5   1  85 CALM      30.25F
ALEXANDRIA     CLOUDY     5  -4  66 SE7       30.24F WCI  -7
ELBOW LAKE     CLOUDY     5   2  89 E3        30.26S
WADENA         CLOUDY    -6  -9  84 CALM      30.24S
GLENWOOD       CLOUDY     1  -4  78 SE5       30.25F WCI  -8
APPLETON       CLOUDY     3   0  85 CALM      30.27F
BENSON         CLOUDY     3   0  85 CALM      30.27F
ORTONVILLE     CLOUDY     7   1  78 CALM      30.25F
MADISON        CLOUDY     3   0  85 S3        30.27F
WILLMAR        FAIR       3   1  92 CALM      30.28F
$$
MNZ033>034-036-042>043-049>051-058-059-111500-
   Central Minnesota

CITY           SKY/WX    TMP DP  RH WIND       PRES   REMARKS
ST CLOUD       CLOUDY    -4  -8  83 CALM      30.30F
SAUK CENTRE    CLOUDY    -5  -8  86 CALM      30.27F
PAYNESVILLE    CLOUDY    -2  -6  84 CALM      30.28F
AITKIN         CLOUDY   -17 -26  63 CALM      30.24F
PINE RIVER     CLOUDY   -17 -22  76 CALM      30.28S
BRAINERD       CLOUDY   -14 -19  79 CALM      30.27S
STAPLES        PTCLDY   -11 -15  84 CALM      30.25F
LONG PRAIRIE   MOCLDY    -8 -11  84 CALM      30.26F
LITTLE FALLS   CLOUDY    -9 -15  77 CALM      30.30S
LITCHFIELD     CLOUDY     0  -2  92 CALM      30.29F
BUFFALO        CLOUDY    -2  -6  81 CALM      30.33R
MAPLE LAKE     CLOUDY    -2  -5  87 CALM      30.32S
$$
MNZ037-044-045-052-053-111500-
   East Central Minnesota

CITY           SKY/WX    TMP DP  RH WIND       PRES   REMARKS
PRINCETON      CLOUDY    -6  -9  84 CALM      30.30S
MORA           CLOUDY    -8 -13  77 CALM      30.31S
CAMBRIDGE      CLOUDY    -6 -13  71 CALM      30.31R
RUSH CITY      CLOUDY    -5  -9  81 CALM      30.32S
MOOSE LAKE     CLOUDY   -18 -24  76 CALM      30.27S
HINCKLEY       FAIR      -9 -13  84 CALM      30.29S
CLOQUET        CLOUDY   -13 -18  77 W3        30.23S
MCGREGOR       CLOUDY   -15 -18  84 CALM      30.27S
$$
MNZ071>073-080-081-089-090-097-098-111500-
   Southwest Minnesota

CITY           SKY/WX    TMP DP  RH WIND       PRES   REMARKS
MONTEVIDEO     CLOUDY     1  -2  85 CALM      30.30R
GRANITE FALLS  CLOUDY     3   0  85 CALM      30.30F FOG
CANBY          CLOUDY    11   9  89 S5        30.27F WCI   3
MARSHALL       MOCLDY     0  -4  83 S3        30.28S
REDWOOD FALLS  CLOUDY     0  -3  87 S3        30.30S
OLIVIA         CLOUDY     7   3  85 CALM      30.29S
PIPESTONE      CLOUDY    14   5  67 S6        30.22S WCI   5
WINDOM         PTCLDY    -9 -13  84 CALM      30.26S
WORTHINGTON    CLOUDY     9   1  72 SE6       30.26S WCI  -1
JACKSON        PTCLDY     0  -6  78 CALM      30.26F
TRACY          CLOUDY     2  -2  85 CALM      30.26F
SLAYTON        CLOUDY     7   6  95 CALM      30.25S
$$
MNZ065>067-074>077-082>085-091>093-111500-
   South Central Minnesota

CITY           SKY/WX    TMP DP  RH WIND       PRES   REMARKS
MANKATO        CLOUDY     0  -4  85 SE5       30.31R WCI -10
NEW ULM        CLOUDY     0  -6  78 CALM      30.31S
ST JAMES       PTCLDY     0  -4  85 CALM      30.31S
FAIRMONT       PTCLDY    -6 -11  77 CALM      30.28S
GLENCOE        CLOUDY     0  -2  89 CALM      30.31R
FARIBAULT        N/A     -8 -11  84 CALM      30.31S
OWATONNA       CLOUDY     0  -6  78 CALM      30.30S
WASECA         PTCLDY    -2  -8  78 CALM      30.32R
ALBERT LEA       N/A     -4  -8  84 CALM      30.29S
$$
MNZ078>079-086>088-094>096-111500-
   Southeast Minnesota

CITY           SKY/WX    TMP DP  RH WIND       PRES   REMARKS
ROCHESTER      PTCLDY    -2  -8  76 W8        30.28S WCI -17
RED WING       CLOUDY    -6 -11  77 CALM      30.34R
STANTON        CLOUDY    -8 -13  78 CALM      30.32R
DODGE CENTER   CLOUDY    -2  -8  78 W3        30.27F
WINONA         CLOUDY    -2  -8  78 CALM      30.36S
AUSTIN         PTCLDY    -6  -8  92 CALM      30.30R
PRESTON        CLOUDY    -1  -7  74 NW5       30.29S WCI -11
$$
ABBREVIATIONS USED IN REMARKS
   TC - TEMPERATURES IN CELSIUS
  WCI - WIND CHILL INDEX
   HX - HEAT INDEX
  VSB - VISIBILITY
$$




USA.gov is the U.S. government's official web portal to all federal, state and local government web resources and services.